Back to catalog

ONEWEB-0353

AliveCommunicationsPO
NORAD 49282·PAYLOAD·🇬🇧 United Kingdom

Launched Oct 14, 2021 from Vostochny Cosmodrome

Loading…

Next Passes (next 24 hours)

TLE

FreshSource: CelesTrak SupGP

Epoch: Sep 14, 2026, 12:28 UTC

1 49282C 21090D   26257.51962222  .00002566  00000+0  69307-2 0  2570
2 49282  87.8896 271.8906 0002120  87.7964  15.1333 13.14502590    19

Track ONEWEB-0353 in real time with AllMySat

Download on the App Store